GFSCGP_sfc_thetae_048.txt.gz
Theta_e
299 293 290 291 293 295 294 292 291 294 300 301 299 298 299 303 305 303 304 307 309 309 309 309 310 310 309 311 313 313 314 313 313 312 311 311 311 313 313 313 315 318 321 324
294 291 296 298 297 295 294 292 292 294 300 300 297 299 299 301 303 303 304 308 310 310 307 309 309 308 309 310 311 311 311 311 312 312 312 312 312 312 312 313 315 320 319 321
292 295 300 297 296 294 294 292 293 292 297 296 295 293 298 302 304 306 307 308 312 310 307 307 308 308 308 309 310 310 310 309 310 311 310 309 309 310 311 312 315 319 319 319
295 299 297 296 295 296 291 298 296 296 292 287 293 284 295 300 301 306 304 306 308 312 311 309 308 308 307 309 310 310 310 310 311 312 310 309 309 308 312 313 317 319 321 322
294 296 296 295 296 298 295 299 297 296 292 289 290 287 291 299 300 303 303 304 307 312 312 309 308 309 309 309 309 310 310 310 311 311 312 312 314 316 314 314 315 320 320 322
296 300 297 296 300 300 301 298 297 295 291 284 290 288 287 297 301 305 307 304 304 308 313 313 310 310 310 310 309 309 309 310 311 311 313 315 316 315 312 313 315 317 321 322
294 295 299 300 296 299 296 292 285 283 282 282 294 291 292 297 305 307 307 308 306 307 310 313 310 311 311 311 309 310 310 310 312 312 314 316 318 316 313 314 316 317 318 317
287 285 295 299 297 294 293 292 285 279 280 284 293 287 292 301 302 304 309 311 310 308 310 312 313 312 314 312 312 310 311 313 313 314 316 318 318 320 318 317 318 318 319 318
288 288 298 299 299 298 293 289 295 289 290 284 288 293 298 300 299 299 303 306 308 309 310 312 313 314 314 314 312 312 312 314 314 315 317 318 320 320 320 320 318 319 319 316
293 287 296 298 299 298 296 298 290 290 282 280 287 289 290 297 297 299 298 302 307 310 310 313 313 314 315 316 315 314 313 313 315 316 318 318 319 320 321 319 318 319 318 316
295 291 292 296 294 293 293 292 294 294 289 282 281 285 295 298 300 299 299 300 302 307 310 311 314 315 315 316 316 316 316 317 317 318 319 320 321 321 321 321 320 319 317 315
296 292 287 290 297 299 296 294 294 288 287 287 284 287 299 299 299 300 301 301 301 304 307 311 311 315 315 316 316 316 318 318 319 320 321 321 323 320 320 320 320 318 317 314
298 290 283 287 292 296 294 295 295 294 291 287 283 288 300 300 300 301 300 300 302 301 305 308 310 312 315 316 317 317 318 318 320 321 321 321 321 320 321 321 323 323 315 312
301 294 289 285 289 293 291 295 295 293 284 286 287 292 296 299 299 301 301 301 302 302 302 307 308 312 314 313 316 319 319 320 321 321 322 321 322 321 322 322 322 319 314 311
300 290 292 293 294 295 294 295 295 292 292 288 290 292 297 299 299 301 302 303 304 304 302 304 308 310 311 313 315 316 319 319 322 322 321 321 322 322 320 317 313 311 310 310
299 290 292 289 294 294 292 295 296 296 294 293 294 293 301 303 300 299 302 303 303 303 303 303 309 311 314 317 318 318 318 320 322 321 321 322 318 317 314 313 312 309 307 306
295 292 288 284 291 291 286 292 294 294 295 296 291 296 300 299 300 300 301 303 303 303 301 302 309 314 316 318 317 316 317 320 321 322 319 315 315 314 312 310 307 304 303 302
292 290 290 283 286 282 292 297 297 295 296 296 296 297 298 299 300 301 303 304 303 302 302 302 310 314 315 315 314 313 314 314 315 315 314 313 310 308 306 305 302 300 300 299
297 290 285 283 284 289 292 295 294 293 294 298 297 297 298 299 297 297 302 302 303 303 303 306 312 313 313 314 313 310 310 310 309 308 307 306 305 302 301 299 299 297 295 294
293 293 287 284 281 280 290 296 301 298 287 297 298 298 298 298 290 294 301 303 303 305 308 310 310 310 311 309 308 306 304 304 302 302 302 302 300 298 295 293 292 293 293 292
285 285 283 283 282 287 296 299 300 288 288 300 303 301 298 295 297 299 302 305 306 307 308 308 310 309 306 306 306 303 302 300 300 300 298 297 296 295 294 293 292 292 292 292
284 283 282 285 283 281 300 298 292 296 299 301 303 301 301 301 302 301 304 305 305 305 304 305 304 303 301 303 303 300 298 299 299 298 297 296 295 295 295 293 293 293 293 288
285 289 286 289 287 299 301 299 303 302 300 302 301 302 303 303 301 302 302 304 304 304 302 302 301 298 298 299 300 297 296 297 297 296 295 295 295 295 294 293 291 290 288 286
289 296 291 292 294 297 298 302 304 305 303 305 305 305 305 302 303 303 301 301 300 300 299 299 299 297 295 297 297 297 297 297 296 294 293 292 290 286 286 286 286 285 282 282
290 294 293 292 295 297 298 300 303 304 305 303 303 304 305 305 304 303 302 300 300 299 299 299 298 296 295 296 295 296 296 295 292 290 286 283 283 282 280 279 280 280 281 281
292 292 289 288 296 295 297 300 303 302 303 304 303 303 303 304 303 303 301 300 299 298 298 297 295 294 294 294 294 293 292 291 287 284 282 281 280 280 279 278 278 282 282 283

GFSCGP_sfc_thetae_051.txt.gz
Theta_e
296 291 289 292 292 293 291 290 288 290 295 296 296 296 297 300 302 302 302 305 306 307 308 308 310 312 312 313 313 315 314 315 315 314 314 313 313 313 313 313 316 317 318 322
293 290 295 296 295 293 292 289 289 293 296 297 295 296 297 301 302 304 302 303 306 307 306 307 307 310 310 312 312 314 314 314 315 316 316 315 314 313 313 313 314 316 318 318
291 294 298 296 293 292 291 289 290 290 294 296 293 291 294 300 302 304 304 306 308 308 306 306 307 308 307 309 308 312 312 312 312 313 314 312 312 311 309 311 311 313 317 317
293 298 295 294 293 293 288 295 294 293 290 286 292 283 290 295 299 302 303 304 308 310 309 307 306 305 306 307 309 310 310 310 309 311 310 308 309 308 310 309 310 311 315 317
293 294 293 292 294 295 292 297 295 294 290 288 288 285 289 297 297 300 302 304 306 311 310 307 307 307 307 308 308 309 310 310 309 309 308 306 306 307 308 309 309 311 315 317
296 298 296 295 297 297 298 295 293 292 289 283 288 287 286 292 297 301 304 304 306 309 311 309 309 308 307 307 307 308 309 309 309 309 309 308 308 309 309 310 311 313 315 317
292 294 296 298 293 296 294 289 283 281 281 282 291 289 290 295 299 303 304 305 306 308 311 310 307 307 307 306 307 308 308 308 309 309 309 310 309 311 312 312 312 313 314 316
286 284 292 297 295 292 291 291 283 278 279 283 291 286 291 299 301 303 306 308 305 305 311 311 310 308 308 308 307 307 308 308 309 309 309 310 312 314 315 315 314 313 314 316
285 286 295 297 297 296 291 288 293 286 287 283 286 290 295 298 298 300 300 305 305 304 306 311 312 309 309 309 309 307 308 308 309 309 310 310 311 313 315 317 316 315 315 316
291 286 294 296 296 296 294 296 288 287 281 280 284 287 288 295 296 296 295 301 305 307 305 308 312 312 311 312 312 310 309 309 310 310 311 311 312 315 316 317 318 316 318 316
292 289 289 294 291 291 291 289 291 291 287 281 280 284 294 296 297 297 296 297 301 306 308 308 310 313 313 314 313 312 310 311 312 313 313 312 313 316 317 318 318 319 317 317
294 290 286 289 295 296 293 292 292 286 285 286 283 287 297 297 298 299 298 299 299 302 308 309 311 313 313 313 314 313 312 311 311 313 315 315 315 317 317 318 319 319 319 317
297 289 282 287 290 293 290 293 293 293 290 286 284 286 298 298 299 300 298 300 299 301 302 306 309 312 312 313 314 314 314 313 313 313 314 315 316 317 318 319 320 320 320 319
300 293 287 282 286 290 288 292 293 292 285 286 288 290 294 297 298 299 299 299 299 300 302 304 306 309 312 313 314 314 315 316 315 315 315 315 316 318 320 321 320 320 320 319
298 289 292 292 294 294 292 292 293 291 291 287 289 290 295 297 298 299 301 300 301 302 300 303 305 308 310 312 314 315 315 315 317 316 317 316 317 319 320 319 320 321 319 316
298 290 291 289 293 293 290 292 293 293 293 292 292 291 298 299 300 298 300 301 301 302 302 301 307 308 309 311 313 314 316 316 317 316 317 318 319 319 318 319 320 316 312 312
293 289 285 283 289 289 285 290 292 293 295 295 290 294 298 298 299 299 300 300 301 302 303 302 302 309 310 311 312 312 314 315 317 317 318 318 319 319 318 316 312 311 309 306
291 289 287 283 284 280 289 294 295 294 295 296 296 297 298 298 299 300 300 300 301 302 303 301 301 308 312 313 313 312 315 316 316 317 317 318 318 317 312 310 308 304 303 301
294 288 283 278 281 286 288 294 292 291 291 297 296 297 298 298 295 295 299 300 302 303 304 303 300 308 311 312 311 311 315 315 315 315 313 313 312 308 307 304 302 300 299 298
292 290 283 284 280 277 285 294 298 299 288 298 299 297 297 297 289 294 299 299 300 301 300 304 308 310 311 309 311 310 311 312 311 309 308 307 306 305 302 300 298 298 297 295
284 285 283 282 281 284 292 296 300 287 287 299 300 299 298 294 296 299 299 300 302 302 305 307 309 310 309 307 308 305 304 305 305 305 303 302 301 299 297 295 294 294 293 292
283 283 283 285 281 278 299 297 290 294 298 300 301 301 299 300 300 300 301 301 303 304 305 307 306 303 303 305 305 301 299 299 299 297 296 296 295 295 294 294 293 293 290 287
282 286 283 286 285 294 299 297 300 300 300 301 302 303 302 300 300 301 301 301 301 302 302 303 302 299 299 301 302 298 296 297 296 295 294 294 294 293 292 291 290 288 286 286
286 292 287 289 292 295 298 301 301 301 303 304 305 302 303 301 302 302 301 300 300 299 299 298 298 297 295 297 297 296 296 296 295 293 292 290 287 285 285 285 287 285 284 284
287 291 289 289 293 295 297 298 300 302 305 304 304 303 302 302 302 301 302 300 299 299 298 298 297 295 294 295 295 295 295 295 290 287 286 284 282 281 280 281 283 282 283 285
292 290 287 286 294 293 295 298 299 300 300 300 300 300 301 301 301 302 302 300 298 297 296 295 294 294 293 292 291 292 293 290 287 283 283 281 280 280 280 279 279 283 283 283

GFSCGP_sfc_thetae_054.txt.gz
Theta_e
296 291 289 291 292 291 290 288 287 289 292 291 291 291 295 299 302 303 304 303 303 305 308 308 309 310 312 313 315 315 316 317 316 316 316 315 314 313 313 316 319 321 322 323
291 290 294 296 294 292 291 288 287 290 294 292 291 293 295 297 300 303 304 302 304 304 304 307 307 311 310 312 314 315 315 316 317 316 317 318 316 315 314 313 315 318 319 321
291 292 296 295 292 291 289 287 287 288 291 292 292 291 292 298 300 302 303 304 304 305 304 305 306 309 310 311 311 314 314 315 316 317 316 314 315 313 312 312 311 314 317 317
292 297 294 292 291 292 287 292 292 291 288 284 291 283 289 292 297 300 302 302 304 306 307 305 305 307 308 310 310 312 313 313 314 316 314 314 313 311 313 312 311 312 316 317
291 293 293 291 292 293 291 294 292 291 288 285 287 283 287 294 295 298 300 303 304 307 308 306 306 306 308 307 308 307 311 312 312 312 313 314 314 314 313 310 310 311 312 316
294 297 295 295 296 295 296 293 291 290 287 281 286 285 284 288 294 297 300 303 304 306 309 308 307 306 305 306 308 307 308 309 309 308 309 309 310 308 308 308 308 308 310 311
290 293 296 296 292 294 293 288 282 280 280 280 288 285 288 294 296 298 300 302 304 306 308 308 305 305 305 305 306 308 308 308 309 308 307 307 307 308 307 308 308 308 309 310
285 283 293 296 294 291 290 289 282 278 278 281 289 285 290 297 300 299 300 303 304 305 309 309 308 306 306 306 306 307 308 308 309 308 308 308 308 308 309 310 310 310 311 311
285 286 294 295 297 296 290 286 291 285 285 282 285 289 294 297 297 298 298 303 301 304 306 310 310 308 307 307 306 306 307 308 308 308 309 308 309 309 309 310 312 313 312 313
291 285 293 295 295 294 293 294 286 285 280 279 282 284 286 292 295 297 295 299 303 302 304 308 311 310 309 309 308 308 308 307 308 308 309 309 309 309 310 311 312 313 314 312
290 288 288 292 290 289 289 288 289 289 285 280 279 282 292 294 296 296 297 297 300 304 302 304 310 312 310 310 309 309 308 308 308 309 309 309 309 309 310 311 313 314 314 313
295 289 284 287 293 294 292 290 291 284 283 284 281 284 295 297 297 298 299 298 297 303 305 304 305 310 310 309 310 310 309 308 309 310 310 309 310 311 310 311 314 315 316 317
296 289 281 285 289 291 288 290 291 291 287 283 281 284 298 297 298 299 298 298 299 298 301 304 305 307 311 310 311 311 311 309 310 310 310 311 311 311 311 313 315 317 317 317
299 292 288 282 286 291 288 291 290 290 283 283 284 287 294 297 297 299 298 299 299 299 299 302 305 308 310 311 312 313 312 312 311 310 310 310 311 312 313 314 315 316 318 317
296 287 291 292 293 293 290 290 290 288 288 286 287 288 293 297 297 298 299 299 299 300 299 300 303 306 310 310 311 313 313 313 313 311 310 310 311 312 313 314 316 317 318 318
295 287 288 287 292 289 287 291 290 290 290 290 290 289 295 298 298 297 299 299 299 299 300 301 301 304 305 310 311 312 313 313 314 313 312 312 312 312 312 314 316 317 318 318
291 288 284 282 287 287 283 286 287 290 292 292 287 292 297 296 298 298 299 299 299 300 301 301 301 303 307 308 311 311 312 313 313 313 314 314 314 313 314 315 317 318 318 317
290 288 284 281 282 276 287 293 294 290 291 291 292 296 297 297 300 300 300 299 299 300 301 301 302 301 305 308 310 311 311 312 313 313 313 313 314 315 315 317 317 316 311 309
293 288 280 277 278 284 286 292 292 289 288 292 293 298 299 298 295 295 297 298 299 299 300 301 301 300 302 307 309 310 310 311 311 313 313 313 313 314 312 310 307 306 302 301
290 289 284 282 275 274 282 290 297 296 284 297 297 297 297 297 288 295 300 299 299 299 299 300 299 303 306 308 310 311 312 312 312 312 310 310 309 307 305 302 300 299 299 296
283 285 284 282 280 282 289 295 299 284 282 295 298 298 297 294 295 300 302 301 301 300 301 302 305 306 308 307 309 310 312 309 305 305 305 305 304 301 298 296 296 296 294 290
282 281 279 283 281 276 295 295 289 292 295 297 297 297 297 299 301 300 301 300 301 302 303 305 304 303 302 305 305 304 302 302 302 301 299 297 296 296 295 294 293 291 289 286
281 284 282 284 283 291 296 294 298 299 297 299 298 300 300 299 300 301 301 301 301 300 300 300 299 298 299 301 302 297 295 298 298 296 295 294 293 293 293 291 290 288 287 285
286 290 286 286 289 291 294 296 297 297 299 301 302 301 302 300 300 299 300 300 299 298 299 299 298 296 294 296 297 296 296 296 296 292 291 290 288 287 287 287 287 287 286 284
285 289 287 286 290 293 295 296 294 296 299 300 302 302 297 295 295 297 299 298 298 298 297 297 295 293 292 294 294 295 296 293 288 287 285 285 284 284 282 282 282 283 284 285
290 287 284 282 293 292 293 295 292 294 292 292 291 290 289 289 292 296 293 292 293 293 292 291 289 288 287 287 287 289 290 289 287 284 283 282 282 282 281 281 280 284 284 283

GFSCGP_sfc_thetae_057.txt.gz
Theta_e
300 296 292 294 297 295 294 292 291 293 296 296 296 296 300 301 308 310 312 312 311 311 313 314 315 317 316 317 318 317 318 318 319 318 318 318 318 319 322 323 324 324 324 323
295 292 297 297 296 295 294 292 292 295 296 295 297 296 301 302 305 308 310 312 312 311 311 312 314 315 315 315 316 317 318 319 319 319 319 321 318 316 322 324 324 324 324 323
293 295 298 296 294 293 294 292 292 292 294 296 296 295 298 301 304 306 308 312 313 312 310 310 310 313 314 314 316 316 317 318 319 321 320 319 318 315 315 317 320 322 324 325
294 298 295 294 293 294 290 295 294 292 291 288 296 287 295 299 300 303 306 308 310 311 312 311 309 310 312 315 317 318 318 317 318 319 319 316 316 312 317 316 315 317 320 321
292 294 294 292 294 296 293 297 295 294 292 291 292 290 294 296 298 301 305 307 309 311 312 311 310 311 313 315 314 317 317 316 317 318 320 317 314 316 317 315 313 316 318 320
294 300 298 296 297 297 298 295 295 294 292 286 291 291 291 294 298 301 304 307 309 310 312 313 313 313 312 314 314 315 317 314 315 316 317 317 315 314 312 313 312 312 313 316
293 294 297 298 295 296 296 293 286 285 285 285 291 289 293 299 301 302 304 306 308 310 312 313 311 310 310 309 311 313 315 315 315 315 317 317 316 316 314 313 313 314 312 314
287 285 295 298 296 293 293 293 287 282 283 286 292 288 294 302 304 304 305 306 308 310 312 313 313 312 311 310 311 312 313 314 315 314 314 316 318 318 318 318 317 317 315 316
287 287 295 297 298 298 292 289 295 288 289 287 290 294 298 302 301 303 303 303 306 310 311 313 314 313 313 312 312 312 313 314 315 315 315 315 315 316 316 318 318 318 319 318
293 287 294 295 298 298 296 297 289 289 282 281 286 289 292 297 299 301 303 302 305 310 310 313 314 313 314 314 313 313 314 313 315 315 316 315 315 315 316 317 317 317 319 319
294 291 290 295 292 292 293 292 293 293 289 285 283 288 299 300 301 302 304 304 304 306 310 311 315 315 314 314 313 312 313 313 314 315 315 316 315 316 316 316 317 317 319 319
296 290 286 289 295 297 296 293 294 288 286 288 287 289 300 302 303 303 304 305 306 305 309 311 313 316 315 313 313 312 312 313 314 315 315 315 316 316 316 316 317 318 318 320
298 291 285 287 292 294 292 292 294 293 291 287 286 289 300 302 302 304 303 306 306 305 305 310 309 313 315 314 314 313 313 314 314 314 314 315 314 314 313 313 314 315 316 317
300 294 289 285 288 293 291 293 294 292 287 288 289 291 297 300 302 304 305 307 307 306 305 306 310 311 314 315 314 314 315 315 315 314 314 314 314 314 314 315 315 315 316 316
298 289 291 293 293 293 291 291 292 290 291 288 290 291 296 299 301 304 305 304 304 305 306 305 306 311 313 314 316 316 316 316 316 314 314 314 315 316 316 316 317 317 317 316
292 289 291 288 292 291 288 291 290 292 292 292 292 292 298 300 302 301 303 303 304 305 305 307 307 307 310 313 314 316 316 317 317 315 314 315 316 316 316 317 317 318 318 319
288 289 286 283 288 288 284 290 290 291 293 293 288 292 296 300 300 300 302 304 302 304 305 306 306 308 309 311 314 315 317 318 317 316 316 316 316 315 315 316 316 317 318 320
287 288 286 283 285 277 288 295 294 294 294 294 293 294 300 301 302 304 303 303 304 304 304 306 307 309 310 311 313 316 316 317 317 316 316 316 316 315 315 315 315 317 319 319
292 289 284 282 282 285 288 291 292 292 290 296 296 299 300 302 302 303 304 306 305 306 305 304 306 307 308 308 311 313 314 316 315 316 316 316 317 316 317 316 317 318 312 308
291 292 288 283 280 277 286 292 298 296 286 297 298 299 299 301 296 300 305 305 306 306 306 305 305 305 305 307 311 312 313 314 315 315 316 317 317 317 316 313 309 303 302 298
285 286 284 283 282 285 292 295 298 284 287 298 299 300 299 298 301 304 305 305 305 305 306 308 310 308 309 311 313 313 314 313 311 312 312 310 309 305 302 299 298 296 294 291
283 282 283 285 281 279 294 297 291 295 299 299 300 300 300 302 303 303 303 303 304 303 304 305 306 305 307 310 313 311 304 305 305 303 300 299 298 298 297 296 295 292 290 287
285 288 286 288 287 294 298 297 297 298 297 299 300 302 302 302 302 302 301 301 302 302 303 303 303 301 300 303 307 302 299 300 299 297 295 295 294 294 294 292 290 288 288 286
290 292 289 289 292 293 296 298 296 297 295 295 297 294 294 292 294 296 299 298 298 299 299 300 299 297 296 297 298 299 299 298 296 292 291 290 289 288 288 288 289 287 286 285
290 291 290 290 292 295 295 294 293 294 294 293 293 291 289 288 289 292 289 289 290 290 291 292 292 291 290 291 291 293 294 293 291 290 288 287 286 285 283 283 284 284 284 286
292 290 289 288 293 292 293 292 291 292 290 289 288 287 287 286 285 286 284 285 285 284 285 286 285 285 284 286 287 288 290 290 289 287 286 285 285 285 283 282 281 283 283 283